Weather History for Miramar MCAS, CA

Change the Weather History Date:

Tuesday, January 22, 2013

  Actual Average Record
Temperature  
Mean Temperature 64 °F -  
Max Temperature 82 °F 64 °F 82 °F (2013)
Min Temperature 46 °F 44 °F 34 °F (2007)
Degree Days  
Heating Degree Days 1    
Growing Degree Days 14 (Base 50)    
Moisture  
Dew Point 16 °F    
Average Humidity 20    
Maximum Humidity 33    
Minimum Humidity 6    
Precipitation  
Precipitation 0.00 in - - ()
Sea Level Pressure  
Sea Level Pressure 30.04 in    
Wind  
Wind Speed 7 mph (NE)    
Max Wind Speed 10 mph    
Max Gust Speed -    
Visibility 10 miles    
Events      
Averages and records for this station are not official NWS values.
T = Trace of Precipitation, MM = Missing Value Source: NWS Daily Summary

Daily Weather History Graph

Daily Weather History Graph

Search for Another Location

Airport:

Trip Planner

Search our weather history database for the weather conditions in past years. The results will help you decide how hot, cold, wet, or windy it might be!

Date:

Astronomy

Jan. 22, 2013 Rise Set
Actual Time 6:48 AM PST 5:11 PM PST
Civil Twilight 6:22 AM PST 5:38 PM PST
Nautical Twilight 5:52 AM PST 6:08 PM PST
Astronomical Twilight 5:23 AM PST 6:37 PM PST
Moon 1:40 PM PST (1/22) 3:12 AM PST (1/22)
Length of Visible Light 11h 15m
Length of Day
10h 23m
Waxing Gibbous, 83% of the Moon is Illuminated
Jan 22
Waxing Gibbous
Jan 26
Full
Feb 3
Last Quarter
Feb 9
New
Feb 17
First Quarter

Hourly Weather History & Observations

Time (PST) Temp. Dew Point Humidity Pressure Visibility Wind Dir Wind Speed Gust Speed Precip Events Conditions
12:55 AM 48.0 °F 18.0 °F 30% 30.04 in 10.0 mi ENE 9.2 mph - N/A   Partly Cloudy
1:55 AM 50.0 °F 15.1 °F 25% 30.04 in 10.0 mi East 9.2 mph - N/A   Partly Cloudy
2:55 AM 50.0 °F 16.0 °F 26% 30.04 in 10.0 mi ENE 10.4 mph - N/A   Partly Cloudy
3:55 AM 50.0 °F 14.0 °F 24% 30.04 in 10.0 mi East 5.8 mph - N/A   Partly Cloudy
4:55 AM 46.9 °F 17.1 °F 30% 30.04 in 10.0 mi East 8.1 mph - N/A   Partly Cloudy
5:55 AM 50.0 °F 14.0 °F 24% 30.06 in 10.0 mi East 4.6 mph - N/A   Partly Cloudy
6:55 AM 48.9 °F 15.1 °F 26% 30.06 in 10.0 mi ENE 8.1 mph - N/A   Scattered Clouds
7:55 AM 57.9 °F 15.1 °F 19% 30.06 in 10.0 mi ENE 6.9 mph - N/A   Scattered Clouds
8:55 AM 68.0 °F 16.0 °F 14% 30.07 in 10.0 mi Calm Calm - N/A   Scattered Clouds
9:55 AM 73.9 °F 8.1 °F 8% 30.07 in 10.0 mi Calm Calm - N/A   Partly Cloudy
10:55 AM 78.1 °F 5.0 °F 6% 30.06 in 10.0 mi Calm Calm - N/A   Scattered Clouds
11:55 AM 80.1 °F 7.0 °F 6% 30.02 in 10.0 mi NNW 3.5 mph - N/A   Scattered Clouds
12:55 PM 82.0 °F 9.0 °F 6% 30.00 in 10.0 mi WNW 5.8 mph - N/A   Mostly Cloudy
1:55 PM 80.1 °F 10.0 °F 7% 30.00 in 10.0 mi West 9.2 mph - N/A   Mostly Cloudy
2:55 PM 78.1 °F 7.0 °F 7% 30.01 in 10.0 mi NW 6.9 mph - N/A   Mostly Cloudy
3:55 PM 73.0 °F 12.0 °F 10% 30.02 in 10.0 mi West 4.6 mph - N/A   Mostly Cloudy
4:55 PM 68.0 °F 21.0 °F 17% 30.03 in 10.0 mi Calm Calm - N/A   Mostly Cloudy
5:23 PM - - N/A% - - North - - N/A   Unknown
5:55 PM 59.0 °F 26.1 °F 28% 30.04 in 10.0 mi Calm Calm - N/A   Mostly Cloudy
6:55 PM 57.0 °F 28.0 °F 33% 30.05 in 10.0 mi East 5.8 mph - N/A   Mostly Cloudy
7:00 PM - - N/A% - - North - - N/A   Unknown
7:55 PM 55.9 °F 26.1 °F 32% 30.05 in 10.0 mi ENE 6.9 mph - N/A   Scattered Clouds
8:55 PM 57.9 °F 21.9 °F 25% 30.04 in 10.0 mi ENE 9.2 mph - N/A   Partly Cloudy
9:55 PM 59.0 °F 23.0 °F 25% 30.05 in 10.0 mi ENE 6.9 mph - N/A   Partly Cloudy
10:55 PM 57.0 °F 24.1 °F 28% 30.04 in 10.0 mi ENE 4.6 mph - N/A   Scattered Clouds
11:55 PM 57.9 °F 21.9 °F 25% 30.03 in 10.0 mi ENE 6.9 mph - N/A   Scattered Clouds